Location: *
(43.9905°S, 176.4941°W)
Time: 14:47:43
(UTC+00:00)

Cosmos 1626 Rocket - Pass Details

Date: 08 December 2019
Orbit: 602 x 632 km, 82.5° (Epoch: 29 January)

Event Time Altitude Azimuth Distance (km) Brightness Sun altitude
Rises 09:43:01 0° 184° (S) 2,917 8.2 -18.3°
Reaches altitude 10° 09:45:19 10° 179° (S) 2,008 7.1 -18.5°
Maximum altitude 09:49:40 53° 102° (ESE) 772 3.9 -18.9°
Enters shadow 09:50:53 40° 51° (NE) 930 4.0 -19.0°
